カタログに戻る

CZ-6A DEB

運用中SSO
NORAD 54417·DEBRIS·🇨🇳 China

打ち上げ Nov 11, 2022 から Taiyuan Satellite Launch Center

Loading…

次のパス (今後24時間)

TLE

最新Source: Space-Track

元期: Sep 14, 2026, 03:44 UTC

1 54417U 22151ER  26257.15559681  .00002860  00000-0  21526-2 0  9998
2 54417  98.9793 216.9369 0154874 241.6448 116.9019 13.89612881193942

AllMySatでCZ-6A DEBをリアルタイム追跡

Download on the App Store